When you browse on this site, cookies collect data to enhance your experience and personalize the content and advertising you see.
Visit our Privacy Policy to learn more. By continuing to use the site, you agree to this use of cookies and data.
  • In Hungary
  • List of Countries
  • For 7 days
  • Water Temperature
  • Weather Map
  • News
  • Weather Widgets
  • user-avatar
    Login

    Hourly Weather Barh

    Today, 18 February, Tuesday

    Time Temperature Precipitation Wind Pressure Humidity
    00:00 +18°C° 0 mm 2 mps 757 mmHg 70%
    01:00 +17°C° 0 mm 2 mps 756 mmHg 70%
    02:00 +16°C° 0 mm 2 mps 756 mmHg 71%
    03:00 +16°C° 0 mm 3 mps 756 mmHg 71%
    04:00 +16°C° 0 mm 3 mps 756 mmHg 71%
    05:00 +14°C° 0 mm 3 mps 755 mmHg 70%
    06:00 +15°C° 0 mm 2 mps 756 mmHg 74%
    07:00 +16°C° 0 mm 2 mps 756 mmHg 69%
    08:00 +18°C° 0 mm 3 mps 756 mmHg 64%
    09:00 +20°C° 0 mm 3 mps 757 mmHg 59%
    10:00 +22°C° 0 mm 3 mps 757 mmHg 51%
    11:00 +25°C° 0 mm 3 mps 756 mmHg 43%
    12:00 +27°C° 0 mm 3 mps 757 mmHg 35%
    13:00 +28°C° 0 mm 4 mps 756 mmHg 33%
    14:00 +28°C° 0 mm 4 mps 755 mmHg 32%
    15:00 +29°C° 0 mm 5 mps 755 mmHg 30%
    16:00 +27°C° 0 mm 4 mps 754 mmHg 34%
    17:00 +25°C° 0 mm 3 mps 754 mmHg 39%
    18:00 +23°C° 0 mm 2 mps 754 mmHg 43%
    19:00 +21°C° 0 mm 2 mps 755 mmHg 44%
    20:00 +20°C° 0 mm 2 mps 755 mmHg 45%
    21:00 +19°C° 0 mm 2 mps 756 mmHg 45%
    22:00 +18°C° 0 mm 2 mps 756 mmHg 46%
    23:00 +18°C° 0 mm 1 mps 756 mmHg 47%

    Tomorrow, 19 February, Wednesday

    Time Temperature Precipitation Wind Pressure Humidity
    00:00 +18°C° 0 mm 1 mps 756 mmHg 48%
    01:00 +16°C° 0 mm 1 mps 756 mmHg 50%
    02:00 +15°C° 0 mm 1 mps 755 mmHg 51%
    03:00 +15°C° 0 mm 1 mps 755 mmHg 52%
    04:00 +14°C° 0 mm 1 mps 755 mmHg 53%
    05:00 +14°C° 0 mm 1 mps 755 mmHg 53%
    06:00 +13°C° 0 mm 2 mps 755 mmHg 54%
    07:00 +16°C° 0 mm 1 mps 756 mmHg 49%
    08:00 +19°C° 0 mm 1 mps 757 mmHg 45%
    09:00 +21°C° 0 mm 1 mps 758 mmHg 41%
    10:00 +23°C° 0 mm 1 mps 757 mmHg 36%
    11:00 +25°C° 0 mm 1 mps 757 mmHg 32%
    12:00 +28°C° 0 mm 1 mps 757 mmHg 27%
    13:00 +28°C° 0 mm 1 mps 756 mmHg 25%
    14:00 +29°C° 0 mm 1 mps 756 mmHg 22%
    15:00 +29°C° 0 mm 2 mps 755 mmHg 20%
    16:00 +28°C° 0 mm 1 mps 754 mmHg 24%
    17:00 +26°C° 0 mm 1 mps 754 mmHg 28%
    18:00 +24°C° 0 mm 1 mps 754 mmHg 31%
    19:00 +23°C° 0 mm 1 mps 755 mmHg 32%
    20:00 +21°C° 0 mm 2 mps 755 mmHg 32%
    21:00 +20°C° 0 mm 2 mps 756 mmHg 32%
    22:00 +19°C° 0 mm 2 mps 756 mmHg 34%
    23:00 +20°C° 0 mm 1 mps 756 mmHg 36%

    Day after tomorrow, 20 February, Thursday

    Time Temperature Precipitation Wind Pressure Humidity
    00:00 +19°C° 0 mm 1 mps 756 mmHg 37%
    01:00 +19°C° 0 mm 1 mps 756 mmHg 38%
    02:00 +18°C° 0 mm 1 mps 756 mmHg 39%
    03:00 +18°C° 0 mm 1 mps 755 mmHg 40%
    04:00 +16°C° 0 mm 1 mps 755 mmHg 41%
    05:00 +15°C° 0 mm 0 mps 755 mmHg 41%
    06:00 +15°C° 0 mm 0 mps 755 mmHg 42%
    07:00 +16°C° 0 mm 0 mps 756 mmHg 40%
    08:00 +20°C° 0 mm 1 mps 757 mmHg 38%
    09:00 +22°C° 0 mm 1 mps 758 mmHg 37%
    10:00 +24°C° 0 mm 1 mps 757 mmHg 33%
    11:00 +26°C° 0 mm 2 mps 757 mmHg 30%
    12:00 +28°C° 0 mm 2 mps 757 mmHg 26%
    13:00 +29°C° 0 mm 2 mps 756 mmHg 24%
    14:00 +30°C° 0 mm 2 mps 756 mmHg 23%
    15:00 +31°C° 0 mm 1 mps 755 mmHg 21%
    16:00 +29°C° 0 mm 1 mps 755 mmHg 24%
    17:00 +27°C° 0 mm 1 mps 755 mmHg 27%
    18:00 +25°C° 0 mm 1 mps 755 mmHg 31%
    19:00 +24°C° 0 mm 2 mps 755 mmHg 32%
    20:00 +23°C° 0 mm 2 mps 756 mmHg 33%
    21:00 +21°C° 0 mm 2 mps 756 mmHg 34%
    22:00 +21°C° 0 mm 2 mps 756 mmHg 34%
    23:00 +20°C° 0 mm 2 mps 756 mmHg 35%

    21 February, Friday

    Time Temperature Precipitation Wind Pressure Humidity
    00:00 +20°C° 0 mm 3 mps 756 mmHg 36%
    01:00 +19°C° 0 mm 2 mps 756 mmHg 37%
    02:00 +19°C° 0 mm 2 mps 756 mmHg 39%
    03:00 +18°C° 0 mm 2 mps 756 mmHg 40%
    04:00 +17°C° 0 mm 2 mps 756 mmHg 40%
    05:00 +17°C° 0 mm 2 mps 756 mmHg 41%
    06:00 +17°C° 0 mm 3 mps 756 mmHg 41%
    07:00 +18°C° 0 mm 3 mps 757 mmHg 40%
    08:00 +20°C° 0 mm 4 mps 758 mmHg 39%
    09:00 +22°C° 0 mm 4 mps 759 mmHg 37%
    10:00 +26°C° 0 mm 5 mps 759 mmHg 34%
    11:00 +28°C° 0 mm 5 mps 759 mmHg 31%
    12:00 +32°C° 0 mm 6 mps 759 mmHg 28%
    19:00 +27°C° 0 mm 4 mps 757 mmHg 35%
    20:00 +26°C° 0 mm 4 mps 757 mmHg 36%
    21:00 +25°C° 0 mm 4 mps 758 mmHg 36%
    22:00 +23°C° 0 mm 4 mps 758 mmHg 37%
    23:00 +24°C° 0 mm 3 mps 758 mmHg 37%

    22 February, Saturday

    Time Temperature Precipitation Wind Pressure Humidity
    00:00 +24°C° 0 mm 3 mps 758 mmHg 38%
    01:00 +23°C° 0 mm 4 mps 758 mmHg 42%
    02:00 +23°C° 0 mm 5 mps 758 mmHg 45%
    03:00 +23°C° 0 mm 6 mps 758 mmHg 49%
    04:00 +22°C° 0.1 mm 6 mps 758 mmHg 52%
    05:00 +22°C° 0.1 mm 5 mps 758 mmHg 56%
    06:00 +21°C° 0.1 mm 5 mps 758 mmHg 60%
    07:00 +22°C° 0.2 mm 5 mps 759 mmHg 60%
    08:00 +23°C° 0.2 mm 4 mps 759 mmHg 59%
    09:00 +23°C° 0.2 mm 4 mps 760 mmHg 59%
    10:00 +26°C° 0.1 mm 4 mps 760 mmHg 52%
    11:00 +28°C° 0.1 mm 4 mps 759 mmHg 45%
    12:00 +32°C° 0.1 mm 4 mps 759 mmHg 38%
    13:00 +31°C° 0 mm 3 mps 758 mmHg 34%
    14:00 +32°C° 0 mm 2 mps 757 mmHg 31%
    15:00 +34°C° 0 mm 2 mps 756 mmHg 28%
    16:00 +32°C° 0 mm 1 mps 756 mmHg 31%
    17:00 +30°C° 0 mm 1 mps 756 mmHg 33%
    18:00 +29°C° 0 mm 1 mps 755 mmHg 36%
    19:00 +28°C° 0 mm 1 mps 756 mmHg 39%
    20:00 +26°C° 0 mm 2 mps 756 mmHg 42%
    21:00 +25°C° 0 mm 2 mps 757 mmHg 45%
    22:00 +24°C° 0.1 mm 2 mps 757 mmHg 48%
    23:00 +24°C° 0.1 mm 2 mps 757 mmHg 52%

    23 February, Sunday

    Time Temperature Precipitation Wind Pressure Humidity
    00:00 +23°C° 0.1 mm 2 mps 757 mmHg 56%
    01:00 +21°C° 0.1 mm 2 mps 757 mmHg 57%
    02:00 +21°C° 0.1 mm 2 mps 756 mmHg 59%
    03:00 +21°C° 0.1 mm 2 mps 756 mmHg 61%
    04:00 +20°C° 0.1 mm 2 mps 756 mmHg 64%
    05:00 +19°C° 0.1 mm 2 mps 756 mmHg 66%
    06:00 +19°C° 0.1 mm 3 mps 756 mmHg 69%
    07:00 +20°C° 0 mm 3 mps 757 mmHg 65%
    08:00 +22°C° 0 mm 4 mps 757 mmHg 61%
    09:00 +23°C° 0 mm 5 mps 758 mmHg 58%
    10:00 +27°C° 0 mm 5 mps 758 mmHg 50%
    11:00 +29°C° 0 mm 5 mps 758 mmHg 43%
    12:00 +32°C° 0 mm 5 mps 757 mmHg 36%
    13:00 +33°C° 0 mm 4 mps 756 mmHg 33%
    14:00 +34°C° 0 mm 2 mps 755 mmHg 30%
    15:00 +34°C° 0 mm 1 mps 754 mmHg 27%
    16:00 +32°C° 0 mm 1 mps 754 mmHg 30%
    17:00 +31°C° 0 mm 1 mps 754 mmHg 33%
    18:00 +29°C° 0 mm 1 mps 753 mmHg 36%
    19:00 +28°C° 0 mm 1 mps 754 mmHg 38%
    20:00 +27°C° 0 mm 1 mps 754 mmHg 40%
    21:00 +25°C° 0 mm 1 mps 754 mmHg 42%
    22:00 +25°C° 0.1 mm 1 mps 755 mmHg 46%
    23:00 +24°C° 0.1 mm 1 mps 755 mmHg 50%
    Show more